一网星座-0656星 (ONEWEB-0656)

导读

ONEWEB-0656是英国OneWeb公司旗下的低轨宽带互联网卫星,于2023年3月9日由SpaceX猎鹰9号火箭在佛罗里达州卡纳维拉尔角航天站发射,本次任务共成功部署40颗OneWeb卫星,该卫星运行于近地轨道,属于OneWeb全球低轨卫星互联网星座组网卫星,旨在为全球提供宽带互联网接入服务,此次发射后OneWeb在轨卫星数量达到582颗,进一步推进了星座组网建设进程。

基本信息
目录编号:
55817
目录名称:
ONEWEB-0656
国际标识:
2023-029X
轨道中心:
EARTH
卫星名称:
一网星座-0656星
卫星全名:
一网星座-0656星 (ONEWEB-0656)
卫星状态:
在轨 (已飞行1283 天)
发射日期:
2023-03-09 UTC
国别 :
英国 (GB)
星等 :
--
该卫星已列入 空间交会检测服务 Space Conjunction Data Service (SCDS) ,当前飞行风险评估等级: 无高风险
轨道信息
数据来源 国际轨道数据 AOE轨道数据
星历时间 2026-09-12T01:14:51+0800
10小时前
查看轨道信息
2026-09-09T23:00:00+0800
2天前
查看轨道信息
半长轴 7559.903km 7559.907km
偏心率 0.0002046 0.0001749
轨道倾角 87.914° 87.915°
近地点辐角 101.327° 95.986°
升交点赤经 257.171° 257.590°
平近点角 258.810° 35.035°
近地点 1180.219km 1180.447km
远地点 1183.313km 1183.093km
周期 109.027分钟 109.027分钟
每日圈数 13.207739 13.207729
详细信息
平衡模式:
三轴稳定
覆盖范围:
全球
运营商:
一网卫星公司
运营商所在国:
英国
制造商(研发单位):
一网卫星公司
制造商所在国:
英国
使用方式:
暂无
卫星简介
OneWeb卫星网络由648颗重约125公斤的微型卫星组成,运行在1200公里的轨道上。 每颗卫星都能够提供至少每秒8千兆位的吞吐量,以使用其高吞吐量的Ku频段有效载荷为家庭和移动平台提供互联网接入。该卫星仍在工作。
2D轨道图
3D轨道图
轨道高度分析图
轨道倾角分析图
轨道综合分析图
查看轨道综合分析图
与全量物体交会距离演化趋势
与全量物体交会风险概率演化趋势